Location: Ashtead
(51.3000°N, 0.3000°W)
Time: 05:20:22
(UTC+00:00)

CZ-4C R/B - Pass Details

Date: 26 September 2023
Orbit: 543 x 1453 km, 63.4° (Epoch: 29 November)

Event Time Altitude Azimuth Distance (km) Brightness Sun altitude
Rises 00:05:39 0° 315° (NW) 3,713 6.0 -39.7°
Reaches altitude 10° 00:08:01 10° 313° (NW) 2,882 5.3 -39.7°
Enters shadow 00:10:56 29° 309° (NW) 1,949 4.2 -39.6°
